Weather History for Cherry Point, NC

Change the Weather History Date:

Monday, October 17, 2011

  Actual Average Record
Temperature  
Mean Temperature 70 °F -  
Max Temperature 86 °F 71 °F 86 °F (2011)
Min Temperature 57 °F 51 °F 42 °F (2010)
Cooling Degree Days 6    
Growing Degree Days 20 (Base 50)    
Moisture  
Dew Point 57 °F    
Average Humidity 66    
Maximum Humidity 93    
Minimum Humidity 33    
Precipitation  
Precipitation 0.00 in - - ()
Sea Level Pressure  
Sea Level Pressure 29.94 in    
Wind  
Wind Speed 7 mph ()    
Max Wind Speed 13 mph    
Max Gust Speed 18 mph    
Visibility 10.0 miles    
Events      
Averages and records for this station are not official NWS values.
T = Trace of Precipitation, MM = Missing Value Source: Averaged Metar Reports

Daily Weather History Graph

Daily Weather History Graph

Search for Another Location

Airport:

Trip Planner

Search our weather history database for the weather conditions in past years. The results will help you decide how hot, cold, wet, or windy it might be!

Date:

Astronomy

Oct. 17, 2011 Rise Set
Actual Time 7:14 AM EDT 6:30 PM EDT
Civil Twilight 6:49 AM EDT 6:55 PM EDT
Nautical Twilight 6:19 AM EDT 7:25 PM EDT
Astronomical Twilight 5:50 AM EDT 7:54 PM EDT
Moon 10:18 PM EDT (10/17) 12:09 PM EDT (10/17)
Length of Visible Light 12h 06m
Length of Day
11h 15m
Waning Gibbous, 74% of the Moon is Illuminated
Oct 17
Waning Gibbous
Oct 19
Last Quarter
Oct 26
New
Nov 2
First Quarter
Nov 10
Full

Hourly Weather History & Observations

Time (EDT) Temp. Heat Index Dew Point Humidity Pressure Visibility Wind Dir Wind Speed Gust Speed Precip Events Conditions
12:54 AM 57.9 °F - 51.1 °F 78% 30.01 in 10.0 mi SW 3.5 mph - N/A   Clear
1:54 AM 57.9 °F - 52.0 °F 81% 30.00 in 10.0 mi SW 3.5 mph - N/A   Clear
2:54 AM 62.1 °F - 55.9 °F 80% 29.98 in 10.0 mi SW 6.9 mph - N/A   Clear
3:54 AM 62.1 °F - 55.9 °F 80% 29.96 in 10.0 mi SW 9.2 mph - N/A   Clear
4:54 AM 62.1 °F - 55.9 °F 80% 29.96 in 10.0 mi SW 10.4 mph - N/A   Clear
5:54 AM 62.1 °F - 55.0 °F 78% 29.96 in 10.0 mi SW 8.1 mph - N/A   Clear
6:54 AM 62.1 °F - 53.1 °F 72% 29.96 in 10.0 mi SW 9.2 mph - N/A   Clear
7:54 AM 62.1 °F - 52.0 °F 70% 29.97 in 10.0 mi WSW 8.1 mph - N/A   Clear
8:54 AM 66.9 °F - 52.0 °F 59% 29.98 in 10.0 mi SW 10.4 mph - N/A   Clear
9:54 AM 72.0 °F - 53.1 °F 51% 29.99 in 10.0 mi SW 11.5 mph - N/A   Clear
10:54 AM 75.9 °F - 52.0 °F 43% 29.99 in 10.0 mi West 12.7 mph - N/A   Clear
11:54 AM 79.0 °F - 53.1 °F 40% 29.97 in 10.0 mi West 11.5 mph - N/A   Clear
12:54 PM 82.0 °F 81.2 °F 53.1 °F 37% 29.95 in 10.0 mi SW 11.5 mph - N/A   Clear
1:54 PM 84.0 °F 82.5 °F 53.1 °F 34% 29.91 in 10.0 mi SW 11.5 mph - N/A   Clear
2:54 PM 84.9 °F 83.2 °F 53.1 °F 33% 29.89 in 10.0 mi SW 8.1 mph 18.4 mph N/A   Clear
3:54 PM 82.9 °F 83.3 °F 61.0 °F 47% 29.88 in 10.0 mi South 8.1 mph - N/A   Clear
4:54 PM 80.1 °F 81.1 °F 61.0 °F 52% 29.88 in 10.0 mi SSW 11.5 mph - N/A   Clear
5:54 PM 75.0 °F - 63.0 °F 66% 29.88 in 10.0 mi SSW 9.2 mph - N/A   Clear
6:54 PM 71.1 °F - 62.1 °F 73% 29.88 in 10.0 mi South 8.1 mph - N/A   Clear
7:54 PM 68.0 °F - 62.1 °F 81% 29.89 in 10.0 mi South 6.9 mph - N/A   Clear
8:54 PM 68.0 °F - 62.1 °F 81% 29.90 in 10.0 mi South 8.1 mph - N/A   Clear
9:54 PM 68.0 °F - 62.1 °F 81% 29.91 in 10.0 mi SSW 6.9 mph - N/A   Clear
10:54 PM 66.9 °F - 63.0 °F 87% 29.92 in 10.0 mi WSW 4.6 mph - N/A   Clear
11:54 PM 64.0 °F - 62.1 °F 93% 29.91 in 10.0 mi SSW 4.6 mph - N/A   Clear